PRIVATE WETTERSTATION BILLIGHEIM-ALLFELD                       ZURCK
Wetterdaten: Mittwoch, 16.07.2014
Datum Zeit Temp. A. Temp. A. min Temp. A. max Feuchte A. Luftdruck Regen Wind Richtung Richtung Sonnenschein ET Solar Taupunkt Windchill Windben Empfang
16.07.2014 00:00 16,3 C 16,3 C 16,5 C 82 % 1020,4 hPa 0,0 l/m 0,0 km/h (0 Bft) N 0 0 min 0,025 mm 0 W/m 13,2 C 16,3 C 0,0 km/h (0 Bft) 100 %
16.07.2014 00:10 16,0 C 16,0 C 16,2 C 83 % 1020,3 hPa 0,0 l/m 0,0 km/h (0 Bft) N 0 0 min 0,000 mm 0 W/m 13,1 C 16,0 C 0,0 km/h (0 Bft) 79 %
16.07.2014 00:20 15,8 C 15,8 C 16,0 C 83 % 1020,4 hPa 0,0 l/m 0,0 km/h (0 Bft) N 0 0 min 0,000 mm 0 W/m 12,9 C 15,8 C 0,0 km/h (0 Bft) 100 %
16.07.2014 00:30 15,6 C 15,6 C 15,8 C 84 % 1020,4 hPa 0,0 l/m 0,0 km/h (0 Bft) N 0 0 min 0,000 mm 0 W/m 12,9 C 15,6 C 0,0 km/h (0 Bft) 100 %
16.07.2014 00:40 15,4 C 15,4 C 15,6 C 84 % 1020,4 hPa 0,0 l/m 0,0 km/h (0 Bft) W 270 0 min 0,000 mm 0 W/m 12,7 C 15,4 C 1,6 km/h (1 Bft) 99 %
16.07.2014 00:50 15,3 C 15,3 C 15,4 C 85 % 1020,5 hPa 0,0 l/m 0,0 km/h (0 Bft) W 270 0 min 0,000 mm 0 W/m 12,8 C 15,3 C 1,6 km/h (1 Bft) 100 %
16.07.2014 01:00 15,1 C 15,1 C 15,3 C 86 % 1020,6 hPa 0,0 l/m 0,0 km/h (0 Bft) W 270 0 min 0,025 mm 0 W/m 12,8 C 15,1 C 3,2 km/h (1 Bft) 100 %
16.07.2014 01:10 15,1 C 15,1 C 15,1 C 86 % 1020,6 hPa 0,0 l/m 0,0 km/h (0 Bft) N-NW 337 0 min 0,000 mm 0 W/m 12,8 C 15,1 C 8,0 km/h (2 Bft) 100 %
16.07.2014 01:20 14,9 C 14,9 C 15,1 C 86 % 1020,6 hPa 0,0 l/m 0,0 km/h (0 Bft) N 360 0 min 0,000 mm 0 W/m 12,6 C 14,9 C 3,2 km/h (1 Bft) 100 %
16.07.2014 01:30 14,8 C 14,8 C 14,9 C 86 % 1020,6 hPa 0,0 l/m 0,0 km/h (0 Bft) N 0 0 min 0,000 mm 0 W/m 12,5 C 14,8 C 0,0 km/h (0 Bft) 100 %
16.07.2014 01:40 14,7 C 14,7 C 14,8 C 87 % 1020,5 hPa 0,0 l/m 0,0 km/h (0 Bft) N 360 0 min 0,000 mm 0 W/m 12,6 C 14,7 C 3,2 km/h (1 Bft) 100 %
16.07.2014 01:50 14,6 C 14,6 C 14,7 C 87 % 1020,5 hPa 0,0 l/m 0,0 km/h (0 Bft) N 360 0 min 0,000 mm 0 W/m 12,5 C 14,6 C 1,6 km/h (1 Bft) 100 %
16.07.2014 02:00 14,5 C 14,5 C 14,6 C 87 % 1020,5 hPa 0,0 l/m 0,0 km/h (0 Bft) N 0 0 min 0,000 mm 0 W/m 12,4 C 14,5 C 0,0 km/h (0 Bft) 100 %
16.07.2014 02:10 14,4 C 14,4 C 14,5 C 87 % 1020,5 hPa 0,0 l/m 0,0 km/h (0 Bft) N 360 0 min 0,000 mm 0 W/m 12,3 C 14,4 C 1,6 km/h (1 Bft) 100 %
16.07.2014 02:20 14,3 C 14,3 C 14,4 C 87 % 1020,5 hPa 0,0 l/m 0,0 km/h (0 Bft) N 0 0 min 0,000 mm 0 W/m 12,2 C 14,3 C 0,0 km/h (0 Bft) 91 %
16.07.2014 02:30 14,2 C 14,2 C 14,3 C 87 % 1020,5 hPa 0,0 l/m 0,0 km/h (0 Bft) N 0 0 min 0,000 mm 0 W/m 12,1 C 14,2 C 0,0 km/h (0 Bft) 100 %
16.07.2014 02:40 14,0 C 14,0 C 14,2 C 87 % 1020,5 hPa 0,0 l/m 0,0 km/h (0 Bft) N 0 0 min 0,000 mm 0 W/m 11,9 C 14,0 C 0,0 km/h (0 Bft) 100 %
16.07.2014 02:50 13,9 C 13,9 C 14,0 C 87 % 1020,4 hPa 0,0 l/m 0,0 km/h (0 Bft) N 0 0 min 0,000 mm 0 W/m 11,8 C 13,9 C 0,0 km/h (0 Bft) 100 %
16.07.2014 03:00 13,8 C 13,8 C 13,9 C 87 % 1020,5 hPa 0,0 l/m 0,0 km/h (0 Bft) N 360 0 min 0,000 mm 0 W/m 11,7 C 13,8 C 1,6 km/h (1 Bft) 100 %
16.07.2014 03:10 13,8 C 13,8 C 13,8 C 87 % 1020,5 hPa 0,0 l/m 0,0 km/h (0 Bft) N 0 0 min 0,000 mm 0 W/m 11,7 C 13,8 C 0,0 km/h (0 Bft) 99 %
16.07.2014 03:20 13,8 C 13,7 C 13,8 C 87 % 1020,5 hPa 0,0 l/m 0,0 km/h (0 Bft) N 0 0 min 0,000 mm 0 W/m 11,7 C 13,8 C 0,0 km/h (0 Bft) 100 %
16.07.2014 03:30 13,7 C 13,7 C 13,8 C 87 % 1020,5 hPa 0,0 l/m 0,0 km/h (0 Bft) N 0 0 min 0,000 mm 0 W/m 11,6 C 13,7 C 0,0 km/h (0 Bft) 100 %
16.07.2014 03:40 13,7 C 13,7 C 13,7 C 87 % 1020,5 hPa 0,0 l/m 0,0 km/h (0 Bft) N 0 0 min 0,000 mm 0 W/m 11,6 C 13,7 C 0,0 km/h (0 Bft) 100 %
16.07.2014 03:50 13,7 C 13,7 C 13,7 C 87 % 1020,6 hPa 0,0 l/m 0,0 km/h (0 Bft) N 0 0 min 0,000 mm 0 W/m 11,6 C 13,7 C 0,0 km/h (0 Bft) 100 %
16.07.2014 04:00 13,6 C 13,6 C 13,7 C 87 % 1020,7 hPa 0,0 l/m 0,0 km/h (0 Bft) N 0 0 min 0,000 mm 0 W/m 11,5 C 13,6 C 0,0 km/h (0 Bft) 100 %
16.07.2014 04:10 13,6 C 13,6 C 13,6 C 87 % 1020,6 hPa 0,0 l/m 0,0 km/h (0 Bft) N 0 0 min 0,000 mm 0 W/m 11,5 C 13,6 C 0,0 km/h (0 Bft) 100 %
16.07.2014 04:20 13,5 C 13,5 C 13,6 C 87 % 1020,6 hPa 0,0 l/m 0,0 km/h (0 Bft) N 0 0 min 0,000 mm 0 W/m 11,4 C 13,5 C 0,0 km/h (0 Bft) 100 %
16.07.2014 04:30 13,5 C 13,4 C 13,5 C 87 % 1020,5 hPa 0,0 l/m 0,0 km/h (0 Bft) N 0 0 min 0,000 mm 0 W/m 11,4 C 13,5 C 0,0 km/h (0 Bft) 100 %
16.07.2014 04:40 13,4 C 13,4 C 13,5 C 87 % 1020,5 hPa 0,0 l/m 0,0 km/h (0 Bft) N 0 0 min 0,000 mm 0 W/m 11,3 C 13,4 C 0,0 km/h (0 Bft) 100 %
16.07.2014 04:50 13,4 C 13,4 C 13,4 C 87 % 1020,5 hPa 0,0 l/m 0,0 km/h (0 Bft) N 0 0 min 0,000 mm 0 W/m 11,3 C 13,4 C 0,0 km/h (0 Bft) 100 %
16.07.2014 05:00 13,3 C 13,3 C 13,4 C 87 % 1020,5 hPa 0,0 l/m 0,0 km/h (0 Bft) N 0 0 min 0,000 mm 0 W/m 11,2 C 13,3 C 0,0 km/h (0 Bft) 100 %
16.07.2014 05:10 13,3 C 13,3 C 13,3 C 87 % 1020,5 hPa 0,0 l/m 0,0 km/h (0 Bft) N 360 0 min 0,000 mm 0 W/m 11,2 C 13,3 C 1,6 km/h (1 Bft) 100 %
16.07.2014 05:20 13,2 C 13,2 C 13,3 C 88 % 1020,5 hPa 0,0 l/m 0,0 km/h (0 Bft) N 0 0 min 0,000 mm 0 W/m 11,3 C 13,2 C 0,0 km/h (0 Bft) 100 %
16.07.2014 05:30 13,1 C 13,1 C 13,2 C 87 % 1020,5 hPa 0,0 l/m 0,0 km/h (0 Bft) N 0 0 min 0,000 mm 0 W/m 11,0 C 13,1 C 0,0 km/h (0 Bft) 100 %
16.07.2014 05:40 13,1 C 13,1 C 13,1 C 87 % 1020,4 hPa 0,0 l/m 0,0 km/h (0 Bft) N 0 0 min 0,000 mm 0 W/m 11,0 C 13,1 C 0,0 km/h (0 Bft) 100 %
16.07.2014 05:50 13,0 C 13,0 C 13,1 C 87 % 1020,4 hPa 0,0 l/m 0,0 km/h (0 Bft) N 360 0 min 0,000 mm 7 W/m 10,9 C 13,0 C 3,2 km/h (1 Bft) 100 %
16.07.2014 06:00 12,9 C 12,9 C 13,0 C 87 % 1020,5 hPa 0,0 l/m 0,0 km/h (0 Bft) N 0 0 min 0,000 mm 11 W/m 10,8 C 12,9 C 0,0 km/h (0 Bft) 100 %
16.07.2014 06:10 12,9 C 12,9 C 12,9 C 88 % 1020,5 hPa 0,0 l/m 0,0 km/h (0 Bft) N 0 0 min 0,000 mm 16 W/m 11,0 C 12,9 C 0,0 km/h (0 Bft) 100 %
16.07.2014 06:20 12,9 C 12,9 C 13,0 C 87 % 1020,6 hPa 0,0 l/m 0,0 km/h (0 Bft) N 0 0 min 0,000 mm 18 W/m 10,8 C 12,9 C 0,0 km/h (0 Bft) 100 %
16.07.2014 06:30 13,0 C 12,9 C 13,0 C 87 % 1020,5 hPa 0,0 l/m 0,0 km/h (0 Bft) N 0 0 min 0,000 mm 21 W/m 10,9 C 13,0 C 0,0 km/h (0 Bft) 91 %
16.07.2014 06:40 13,0 C 13,0 C 13,0 C 87 % 1020,6 hPa 0,0 l/m 0,0 km/h (0 Bft) N 0 0 min 0,000 mm 26 W/m 10,9 C 13,0 C 0,0 km/h (0 Bft) 100 %
16.07.2014 06:50 13,1 C 13,0 C 13,1 C 87 % 1020,7 hPa 0,0 l/m 0,0 km/h (0 Bft) N 0 0 min 0,000 mm 26 W/m 11,0 C 13,1 C 0,0 km/h (0 Bft) 100 %
16.07.2014 07:00 13,1 C 13,1 C 13,1 C 87 % 1020,7 hPa 0,0 l/m 0,0 km/h (0 Bft) N 0 0 min 0,025 mm 28 W/m 11,0 C 13,1 C 0,0 km/h (0 Bft) 99 %
16.07.2014 07:10 13,2 C 13,1 C 13,2 C 87 % 1020,7 hPa 0,0 l/m 0,0 km/h (0 Bft) N 0 0 min 0,000 mm 32 W/m 11,1 C 13,2 C 0,0 km/h (0 Bft) 100 %
16.07.2014 07:20 13,3 C 13,2 C 13,3 C 87 % 1020,8 hPa 0,0 l/m 0,0 km/h (0 Bft) N 0 0 min 0,000 mm 35 W/m 11,2 C 13,3 C 0,0 km/h (0 Bft) 100 %
16.07.2014 07:30 13,4 C 13,3 C 13,4 C 87 % 1020,8 hPa 0,0 l/m 0,0 km/h (0 Bft) N 0 0 min 0,000 mm 37 W/m 11,3 C 13,4 C 0,0 km/h (0 Bft) 100 %
16.07.2014 07:40 13,6 C 13,4 C 13,6 C 87 % 1020,8 hPa 0,0 l/m 0,0 km/h (0 Bft) N 0 0 min 0,000 mm 40 W/m 11,5 C 13,6 C 0,0 km/h (0 Bft) 100 %
16.07.2014 07:50 13,8 C 13,6 C 13,8 C 87 % 1020,8 hPa 0,0 l/m 0,0 km/h (0 Bft) N 0 0 min 0,000 mm 42 W/m 11,7 C 13,8 C 0,0 km/h (0 Bft) 100 %
16.07.2014 08:00 14,1 C 13,8 C 14,1 C 87 % 1020,8 hPa 0,0 l/m 0,0 km/h (0 Bft) N 0 0 min 0,025 mm 47 W/m 12,0 C 14,1 C 0,0 km/h (0 Bft) 100 %
16.07.2014 08:10 14,5 C 14,1 C 14,5 C 87 % 1020,8 hPa 0,0 l/m 0,0 km/h (0 Bft) N 0 0 min 0,000 mm 51 W/m 12,4 C 14,5 C 0,0 km/h (0 Bft) 100 %
16.07.2014 08:20 15,1 C 14,5 C 15,1 C 89 % 1020,8 hPa 0,0 l/m 0,0 km/h (0 Bft) W-SW 247 10 min 0,000 mm 306 W/m 13,3 C 15,1 C 1,6 km/h (1 Bft) 100 %
16.07.2014 08:30 16,0 C 15,1 C 16,0 C 87 % 1020,8 hPa 0,0 l/m 0,0 km/h (0 Bft) W-SW 247 10 min 0,000 mm 322 W/m 13,8 C 16,0 C 1,6 km/h (1 Bft) 100 %
16.07.2014 08:40 16,9 C 16,0 C 16,9 C 87 % 1020,8 hPa 0,0 l/m 0,0 km/h (0 Bft) W-SW 247 10 min 0,000 mm 359 W/m 14,7 C 16,9 C 1,6 km/h (1 Bft) 99 %
16.07.2014 08:50 18,1 C 16,9 C 18,1 C 87 % 1020,8 hPa 0,0 l/m 0,0 km/h (0 Bft) W-SW 247 10 min 0,000 mm 411 W/m 15,9 C 18,1 C 1,6 km/h (1 Bft) 100 %
16.07.2014 09:00 19,2 C 18,1 C 19,2 C 85 % 1020,8 hPa 0,0 l/m 0,0 km/h (0 Bft) W-SW 247 10 min 0,152 mm 473 W/m 16,6 C 19,2 C 4,8 km/h (1 Bft) 100 %
16.07.2014 09:10 19,8 C 19,2 C 19,8 C 81 % 1020,8 hPa 0,0 l/m 0,0 km/h (0 Bft) W-SW 247 10 min 0,000 mm 515 W/m 16,4 C 19,8 C 3,2 km/h (1 Bft) 100 %
16.07.2014 09:20 20,6 C 19,8 C 20,6 C 77 % 1020,8 hPa 0,0 l/m 0,0 km/h (0 Bft) W-SW 247 10 min 0,000 mm 564 W/m 16,4 C 20,6 C 4,8 km/h (1 Bft) 100 %
16.07.2014 09:30 21,3 C 20,6 C 21,3 C 72 % 1020,8 hPa 0,0 l/m 0,0 km/h (0 Bft) SW 225 10 min 0,000 mm 577 W/m 16,0 C 21,3 C 4,8 km/h (1 Bft) 100 %
16.07.2014 09:40 21,5 C 21,3 C 21,5 C 72 % 1020,8 hPa 0,0 l/m 0,0 km/h (0 Bft) SW 225 10 min 0,000 mm 585 W/m 16,2 C 21,5 C 1,6 km/h (1 Bft) 100 %
16.07.2014 09:50 21,8 C 21,5 C 21,8 C 70 % 1020,8 hPa 0,0 l/m 0,0 km/h (0 Bft) SW 225 10 min 0,000 mm 573 W/m 16,1 C 21,8 C 3,2 km/h (1 Bft) 99 %
16.07.2014 10:00 22,2 C 21,9 C 22,2 C 69 % 1020,8 hPa 0,0 l/m 0,0 km/h (0 Bft) SW 225 10 min 0,279 mm 668 W/m 16,2 C 22,2 C 1,6 km/h (1 Bft) 100 %
16.07.2014 10:10 22,6 C 22,2 C 22,6 C 68 % 1020,8 hPa 0,0 l/m 0,0 km/h (0 Bft) SW 225 10 min 0,000 mm 677 W/m 16,4 C 22,6 C 3,2 km/h (1 Bft) 100 %
16.07.2014 10:20 23,0 C 22,6 C 23,0 C 68 % 1020,7 hPa 0,0 l/m 0,0 km/h (0 Bft) W-SW 247 10 min 0,000 mm 768 W/m 16,8 C 23,0 C 4,8 km/h (1 Bft) 100 %
16.07.2014 10:30 23,6 C 23,1 C 23,6 C 65 % 1020,7 hPa 0,0 l/m 0,0 km/h (0 Bft) W-SW 247 10 min 0,000 mm 817 W/m 16,6 C 23,6 C 4,8 km/h (1 Bft) 100 %
16.07.2014 10:40 23,7 C 23,6 C 23,7 C 66 % 1020,7 hPa 0,0 l/m 0,0 km/h (0 Bft) W-SW 247 10 min 0,000 mm 612 W/m 17,0 C 23,7 C 6,4 km/h (2 Bft) 100 %
16.07.2014 10:50 24,0 C 23,7 C 24,0 C 66 % 1020,6 hPa 0,0 l/m 0,0 km/h (0 Bft) W-SW 247 10 min 0,000 mm 724 W/m 17,2 C 24,0 C 3,2 km/h (1 Bft) 100 %
16.07.2014 11:00 24,7 C 24,0 C 24,7 C 62 % 1020,6 hPa 0,0 l/m 0,0 km/h (0 Bft) S-SW 202 10 min 0,381 mm 817 W/m 16,9 C 24,7 C 8,0 km/h (2 Bft) 100 %
16.07.2014 11:10 24,7 C 24,7 C 24,8 C 59 % 1020,6 hPa 0,0 l/m 0,0 km/h (0 Bft) W-NW 292 10 min 0,000 mm 645 W/m 16,1 C 24,7 C 4,8 km/h (1 Bft) 100 %
16.07.2014 11:20 24,5 C 24,5 C 24,7 C 60 % 1020,6 hPa 0,0 l/m 0,0 km/h (0 Bft) W-NW 292 10 min 0,000 mm 724 W/m 16,2 C 24,5 C 1,6 km/h (1 Bft) 99 %
16.07.2014 11:30 24,5 C 24,4 C 24,5 C 58 % 1020,5 hPa 0,0 l/m 1,6 km/h (1 Bft) O-SO 112 10 min 0,000 mm 656 W/m 15,7 C 24,5 C 6,4 km/h (2 Bft) 100 %
16.07.2014 11:40 24,8 C 24,5 C 24,8 C 58 % 1020,6 hPa 0,0 l/m 1,6 km/h (1 Bft) NW 315 10 min 0,000 mm 673 W/m 16,0 C 24,8 C 6,4 km/h (2 Bft) 100 %
16.07.2014 11:50 24,9 C 24,8 C 24,9 C 60 % 1020,5 hPa 0,0 l/m 0,0 km/h (0 Bft) N-NO 22 10 min 0,000 mm 895 W/m 16,6 C 24,9 C 4,8 km/h (1 Bft) 100 %
16.07.2014 12:00 25,2 C 24,9 C 25,2 C 59 % 1020,5 hPa 0,0 l/m 0,0 km/h (0 Bft) O 90 10 min 0,432 mm 1037 W/m 16,6 C 25,2 C 4,8 km/h (1 Bft) 100 %
16.07.2014 12:10 25,6 C 25,2 C 25,6 C 51 % 1020,4 hPa 0,0 l/m 0,0 km/h (0 Bft) O-SO 112 10 min 0,000 mm 1120 W/m 14,7 C 25,6 C 6,4 km/h (2 Bft) 100 %
16.07.2014 12:20 25,8 C 25,6 C 25,9 C 55 % 1020,4 hPa 0,0 l/m 1,6 km/h (1 Bft) S-SW 202 10 min 0,000 mm 1062 W/m 16,1 C 25,8 C 9,7 km/h (2 Bft) 100 %
16.07.2014 12:30 26,0 C 25,9 C 26,0 C 54 % 1020,3 hPa 0,0 l/m 3,2 km/h (1 Bft) S-SW 202 10 min 0,000 mm 1032 W/m 16,0 C 26,0 C 9,7 km/h (2 Bft) 100 %
16.07.2014 12:40 25,9 C 25,9 C 26,0 C 57 % 1020,4 hPa 0,0 l/m 1,6 km/h (1 Bft) SW 225 10 min 0,000 mm 348 W/m 16,7 C 25,9 C 9,7 km/h (2 Bft) 100 %
16.07.2014 12:50 25,3 C 25,3 C 25,9 C 56 % 1020,4 hPa 0,0 l/m 0,0 km/h (0 Bft) W-SW 247 10 min 0,000 mm 294 W/m 15,9 C 25,3 C 1,6 km/h (1 Bft) 100 %
16.07.2014 13:00 24,9 C 24,9 C 25,3 C 58 % 1020,4 hPa 0,0 l/m 1,6 km/h (1 Bft) W 270 10 min 0,381 mm 388 W/m 16,1 C 24,9 C 6,4 km/h (2 Bft) 100 %
16.07.2014 13:10 24,7 C 24,7 C 24,9 C 56 % 1020,4 hPa 0,0 l/m 0,0 km/h (0 Bft) W-NW 292 10 min 0,000 mm 362 W/m 15,3 C 24,7 C 4,8 km/h (1 Bft) 100 %
16.07.2014 13:20 24,7 C 24,6 C 24,7 C 56 % 1020,4 hPa 0,0 l/m 0,0 km/h (0 Bft) S-SW 202 10 min 0,000 mm 359 W/m 15,3 C 24,7 C 6,4 km/h (2 Bft) 100 %
16.07.2014 13:30 24,8 C 24,7 C 24,8 C 59 % 1020,4 hPa 0,0 l/m 0,0 km/h (0 Bft) S-SW 202 10 min 0,000 mm 455 W/m 16,2 C 24,8 C 1,6 km/h (1 Bft) 99 %
16.07.2014 13:40 25,6 C 24,9 C 25,6 C 56 % 1020,3 hPa 0,0 l/m 0,0 km/h (0 Bft) W 270 10 min 0,000 mm 1181 W/m 16,2 C 25,6 C 4,8 km/h (1 Bft) 100 %
16.07.2014 13:50 25,8 C 25,6 C 25,9 C 56 % 1020,3 hPa 0,0 l/m 0,0 km/h (0 Bft) N 360 10 min 0,000 mm 476 W/m 16,3 C 25,8 C 6,4 km/h (2 Bft) 100 %
16.07.2014 14:00 25,0 C 25,0 C 25,8 C 58 % 1020,3 hPa 0,0 l/m 0,0 km/h (0 Bft) NW 315 10 min 0,305 mm 255 W/m 16,1 C 25,0 C 8,0 km/h (2 Bft) 100 %
16.07.2014 14:10 24,3 C 24,3 C 25,0 C 60 % 1020,3 hPa 0,0 l/m 3,2 km/h (1 Bft) N-NW 337 10 min 0,000 mm 330 W/m 16,0 C 24,3 C 11,3 km/h (2 Bft) 100 %
16.07.2014 14:20 24,1 C 24,1 C 24,3 C 62 % 1020,3 hPa 0,0 l/m 3,2 km/h (1 Bft) NW 315 10 min 0,000 mm 499 W/m 16,4 C 24,1 C 16,1 km/h (3 Bft) 100 %
16.07.2014 14:30 24,2 C 24,1 C 24,2 C 61 % 1020,3 hPa 0,0 l/m 1,6 km/h (1 Bft) N-NW 337 10 min 0,000 mm 568 W/m 16,2 C 24,2 C 8,0 km/h (2 Bft) 100 %
16.07.2014 14:40 24,0 C 24,0 C 24,2 C 63 % 1020,2 hPa 0,0 l/m 1,6 km/h (1 Bft) NW 315 10 min 0,000 mm 383 W/m 16,5 C 24,0 C 6,4 km/h (2 Bft) 100 %
16.07.2014 14:50 23,8 C 23,8 C 24,0 C 62 % 1020,2 hPa 0,0 l/m 1,6 km/h (1 Bft) N-NW 337 10 min 0,000 mm 390 W/m 16,1 C 23,8 C 11,3 km/h (2 Bft) 100 %
16.07.2014 15:00 24,0 C 23,8 C 24,0 C 62 % 1020,2 hPa 0,0 l/m 1,6 km/h (1 Bft) NW 315 10 min 0,279 mm 1155 W/m 16,3 C 24,0 C 6,4 km/h (2 Bft) 100 %
16.07.2014 15:10 25,1 C 24,0 C 25,1 C 62 % 1020,1 hPa 0,0 l/m 3,2 km/h (1 Bft) NW 315 10 min 0,000 mm 1032 W/m 17,3 C 25,1 C 9,7 km/h (2 Bft) 100 %
16.07.2014 15:20 25,7 C 25,2 C 25,7 C 56 % 1020,1 hPa 0,0 l/m 6,4 km/h (2 Bft) NW 315 10 min 0,000 mm 1000 W/m 16,2 C 25,7 C 16,1 km/h (3 Bft) 100 %
16.07.2014 15:30 26,1 C 25,7 C 26,1 C 59 % 1020,1 hPa 0,0 l/m 4,8 km/h (1 Bft) NW 315 10 min 0,000 mm 891 W/m 17,4 C 26,1 C 16,1 km/h (3 Bft) 100 %
16.07.2014 15:40 26,3 C 26,1 C 26,3 C 53 % 1020,1 hPa 0,0 l/m 3,2 km/h (1 Bft) NW 315 10 min 0,000 mm 800 W/m 15,9 C 26,3 C 14,5 km/h (3 Bft) 100 %
16.07.2014 15:50 26,1 C 26,1 C 26,3 C 50 % 1020,1 hPa 0,0 l/m 1,6 km/h (1 Bft) NW 315 10 min 0,000 mm 770 W/m 14,8 C 26,1 C 8,0 km/h (2 Bft) 100 %
16.07.2014 16:00 26,3 C 26,1 C 26,3 C 57 % 1020,0 hPa 0,0 l/m 0,0 km/h (0 Bft) SO 135 10 min 0,483 mm 793 W/m 17,1 C 26,3 C 8,0 km/h (2 Bft) 100 %
16.07.2014 16:10 26,6 C 26,3 C 26,6 C 52 % 1020,0 hPa 0,0 l/m 0,0 km/h (0 Bft) NW 315 10 min 0,000 mm 798 W/m 15,9 C 26,6 C 4,8 km/h (1 Bft) 100 %
16.07.2014 16:20 26,8 C 26,6 C 26,8 C 54 % 1020,0 hPa 0,0 l/m 1,6 km/h (1 Bft) NW 315 10 min 0,000 mm 784 W/m 16,7 C 26,8 C 8,0 km/h (2 Bft) 100 %
16.07.2014 16:30 26,6 C 26,6 C 26,9 C 52 % 1019,9 hPa 0,0 l/m 1,6 km/h (1 Bft) N-NW 337 10 min 0,000 mm 722 W/m 15,9 C 26,6 C 9,7 km/h (2 Bft) 100 %
16.07.2014 16:40 25,7 C 25,7 C 26,6 C 57 % 1019,8 hPa 0,0 l/m 1,6 km/h (1 Bft) NW 315 10 min 0,000 mm 677 W/m 16,5 C 25,7 C 8,0 km/h (2 Bft) 100 %
16.07.2014 16:50 24,9 C 24,9 C 25,7 C 58 % 1019,8 hPa 0,0 l/m 0,0 km/h (0 Bft) N-NW 337 10 min 0,000 mm 207 W/m 16,1 C 24,9 C 6,4 km/h (2 Bft) 100 %
16.07.2014 17:00 24,8 C 24,7 C 25,7 C 55 % 1019,7 hPa 0,0 l/m 0,0 km/h (0 Bft) N-NW 333 10 min 0,256 mm 155 W/m 15,1 C 24,8 C 1,6 km/h (1 Bft) 97 %
16.07.2014 17:10 25,3 C 24,8 C 25,3 C 59 % 1019,7 hPa 0,0 l/m 0,1 km/h (0 Bft) N-NW 333 0 min 0,000 mm 90 W/m 16,7 C 25,3 C 1,6 km/h (1 Bft) 98 %
16.07.2014 17:20 25,5 C 25,3 C 25,5 C 56 % 1019,7 hPa 0,0 l/m 0,1 km/h (0 Bft) N-NW 340 10 min 0,000 mm 257 W/m 16,1 C 25,5 C 1,6 km/h (1 Bft) 97 %
16.07.2014 17:30 25,3 C 25,3 C 25,6 C 57 % 1019,7 hPa 0,0 l/m 0,0 km/h (0 Bft) N-NW 340 0 min 0,000 mm 132 W/m 16,2 C 25,3 C 1,6 km/h (1 Bft) 97 %
16.07.2014 17:40 25,3 C 25,2 C 25,3 C 58 % 1019,9 hPa 0,0 l/m 0,0 km/h (0 Bft) N-NW 340 0 min 0,000 mm 114 W/m 16,4 C 25,3 C 1,6 km/h (1 Bft) 97 %
16.07.2014 17:50 25,4 C 25,3 C 25,4 C 57 % 1019,6 hPa 0,0 l/m 0,9 km/h (0 Bft) NW 321 10 min 0,000 mm 454 W/m 16,2 C 25,4 C 6,4 km/h (2 Bft) 97 %
16.07.2014 18:00 25,6 C 25,4 C 25,6 C 56 % 1019,5 hPa 0,0 l/m 3,6 km/h (1 Bft) W-NW 302 10 min 0,000 mm 302 W/m 16,2 C 25,6 C 9,7 km/h (2 Bft) 98 %
16.07.2014 18:10 25,8 C 25,6 C 25,8 C 54 % 1019,5 hPa 0,0 l/m 0,7 km/h (0 Bft) NW 311 10 min 0,152 mm 408 W/m 15,8 C 25,8 C 6,4 km/h (2 Bft) 97 %
16.07.2014 18:20 25,8 C 25,8 C 25,8 C 53 % 1019,4 hPa 0,0 l/m 0,5 km/h (0 Bft) NW 315 0 min 0,000 mm 100 W/m 15,5 C 25,8 C 6,4 km/h (2 Bft) 98 %
16.07.2014 18:30 25,7 C 25,7 C 25,8 C 55 % 1019,4 hPa 0,0 l/m 1,5 km/h (1 Bft) NW 309 0 min 0,000 mm 84 W/m 16,0 C 25,7 C 6,4 km/h (2 Bft) 97 %
16.07.2014 18:40 25,6 C 25,6 C 25,7 C 49 % 1019,3 hPa 0,0 l/m 1,5 km/h (1 Bft) W-NW 282 10 min 0,000 mm 193 W/m 14,1 C 25,6 C 6,4 km/h (2 Bft) 98 %
16.07.2014 18:50 25,6 C 25,6 C 25,6 C 50 % 1019,2 hPa 0,0 l/m 2,5 km/h (1 Bft) W-NW 295 0 min 0,000 mm 135 W/m 14,4 C 25,6 C 8,0 km/h (2 Bft) 97 %
16.07.2014 19:00 25,6 C 25,6 C 25,6 C 48 % 1019,3 hPa 0,0 l/m 3,5 km/h (1 Bft) W-NW 302 10 min 0,153 mm 283 W/m 13,8 C 25,6 C 11,3 km/h (2 Bft) 97 %
16.07.2014 19:10 25,6 C 25,6 C 25,7 C 55 % 1019,2 hPa 0,0 l/m 0,9 km/h (0 Bft) NW 311 10 min 0,000 mm 257 W/m 15,9 C 25,6 C 6,4 km/h (2 Bft) 98 %
16.07.2014 19:20 25,2 C 25,2 C 25,6 C 57 % 1019,1 hPa 0,0 l/m 0,0 km/h (0 Bft) NW 311 0 min 0,000 mm 102 W/m 16,1 C 25,2 C 1,6 km/h (1 Bft) 97 %
16.07.2014 19:30 24,9 C 24,9 C 25,2 C 52 % 1019,1 hPa 0,0 l/m 0,0 km/h (0 Bft) NW 311 10 min 0,000 mm 204 W/m 14,4 C 24,9 C 1,6 km/h (1 Bft) 98 %
16.07.2014 19:40 24,6 C 24,6 C 24,9 C 57 % 1019,2 hPa 0,0 l/m 0,1 km/h (0 Bft) NW 311 0 min 0,000 mm 39 W/m 15,5 C 24,6 C 4,8 km/h (1 Bft) 97 %
16.07.2014 19:50 24,2 C 24,2 C 24,6 C 63 % 1019,1 hPa 0,0 l/m 0,0 km/h (0 Bft) NW 311 0 min 0,000 mm 33 W/m 16,7 C 24,2 C 1,6 km/h (1 Bft) 97 %
16.07.2014 20:00 23,7 C 23,7 C 24,2 C 64 % 1019,1 hPa 0,0 l/m 0,0 km/h (0 Bft) NW 311 0 min 0,101 mm 30 W/m 16,5 C 23,7 C 1,6 km/h (1 Bft) 98 %
16.07.2014 20:10 23,4 C 23,4 C 23,7 C 63 % 1019,2 hPa 0,0 l/m 0,0 km/h (0 Bft) NW 311 0 min 0,000 mm 28 W/m 15,9 C 23,4 C 0,0 km/h (0 Bft) 97 %
16.07.2014 20:20 23,1 C 23,1 C 23,4 C 65 % 1019,2 hPa 0,0 l/m 0,0 km/h (0 Bft) NW 311 0 min 0,000 mm 25 W/m 16,2 C 23,1 C 0,0 km/h (0 Bft) 98 %
16.07.2014 20:30 22,7 C 22,7 C 23,1 C 65 % 1019,2 hPa 0,0 l/m 0,0 km/h (0 Bft) NW 311 0 min 0,000 mm 21 W/m 15,8 C 22,7 C 0,0 km/h (0 Bft) 97 %
16.07.2014 20:40 22,4 C 22,4 C 22,7 C 68 % 1019,3 hPa 0,0 l/m 0,0 km/h (0 Bft) NW 311 0 min 0,000 mm 18 W/m 16,2 C 22,4 C 0,0 km/h (0 Bft) 98 %
16.07.2014 20:50 22,1 C 22,1 C 22,4 C 68 % 1019,3 hPa 0,0 l/m 0,0 km/h (0 Bft) NW 311 0 min 0,000 mm 14 W/m 15,9 C 22,1 C 0,0 km/h (0 Bft) 97 %
16.07.2014 21:00 21,7 C 21,7 C 22,1 C 69 % 1019,3 hPa 0,0 l/m 0,0 km/h (0 Bft) NW 311 0 min 0,026 mm 11 W/m 15,8 C 21,7 C 0,0 km/h (0 Bft) 97 %
16.07.2014 21:10 21,4 C 21,4 C 21,7 C 68 % 1019,4 hPa 0,0 l/m 0,0 km/h (0 Bft) N 0 0 min 0,000 mm 11 W/m 15,2 C 21,4 C 0,0 km/h (0 Bft) 99 %
16.07.2014 21:20 21,1 C 21,1 C 21,4 C 68 % 1019,5 hPa 0,0 l/m 0,0 km/h (0 Bft) N 0 0 min 0,000 mm 7 W/m 15,0 C 21,1 C 0,0 km/h (0 Bft) 100 %
16.07.2014 21:30 20,8 C 20,8 C 21,1 C 66 % 1019,5 hPa 0,0 l/m 0,0 km/h (0 Bft) N 0 0 min 0,000 mm 0 W/m 14,2 C 20,8 C 0,0 km/h (0 Bft) 100 %
16.07.2014 21:40 20,6 C 20,6 C 20,8 C 64 % 1019,6 hPa 0,0 l/m 0,0 km/h (0 Bft) N 0 0 min 0,000 mm 0 W/m 13,5 C 20,6 C 0,0 km/h (0 Bft) 100 %
16.07.2014 21:50 20,3 C 20,3 C 20,6 C 66 % 1019,6 hPa 0,0 l/m 0,0 km/h (0 Bft) N 0 0 min 0,000 mm 0 W/m 13,7 C 20,3 C 0,0 km/h (0 Bft) 100 %
16.07.2014 22:00 20,0 C 20,0 C 20,3 C 67 % 1019,8 hPa 0,0 l/m 0,0 km/h (0 Bft) N 0 0 min 0,000 mm 0 W/m 13,7 C 20,0 C 0,0 km/h (0 Bft) 100 %
16.07.2014 22:10 19,7 C 19,7 C 20,0 C 68 % 1019,9 hPa 0,0 l/m 0,0 km/h (0 Bft) N 0 0 min 0,000 mm 0 W/m 13,6 C 19,7 C 0,0 km/h (0 Bft) 100 %
16.07.2014 22:20 19,3 C 19,3 C 19,7 C 71 % 1020,1 hPa 0,0 l/m 0,0 km/h (0 Bft) NW 315 0 min 0,000 mm 0 W/m 13,9 C 19,3 C 3,2 km/h (1 Bft) 100 %
16.07.2014 22:30 18,9 C 18,9 C 19,3 C 73 % 1020,0 hPa 0,0 l/m 1,6 km/h (1 Bft) NW 315 0 min 0,000 mm 0 W/m 13,9 C 18,9 C 4,8 km/h (1 Bft) 100 %
16.07.2014 22:40 18,6 C 18,6 C 18,9 C 74 % 1020,1 hPa 0,0 l/m 0,0 km/h (0 Bft) NW 315 0 min 0,000 mm 0 W/m 13,9 C 18,6 C 1,6 km/h (1 Bft) 100 %
16.07.2014 22:50 18,2 C 18,2 C 18,6 C 77 % 1020,1 hPa 0,0 l/m 0,0 km/h (0 Bft) NW 315 0 min 0,000 mm 0 W/m 14,1 C 18,2 C 1,6 km/h (1 Bft) 100 %
16.07.2014 23:00 17,9 C 17,9 C 18,2 C 78 % 1020,3 hPa 0,0 l/m 0,0 km/h (0 Bft) N 0 0 min 0,025 mm 0 W/m 14,0 C 17,9 C 0,0 km/h (0 Bft) 100 %
16.07.2014 23:10 17,7 C 17,7 C 17,9 C 78 % 1020,3 hPa 0,0 l/m 0,0 km/h (0 Bft) N 0 0 min 0,000 mm 0 W/m 13,8 C 17,7 C 0,0 km/h (0 Bft) 100 %
16.07.2014 23:20 17,4 C 17,4 C 17,7 C 80 % 1020,3 hPa 0,0 l/m 0,0 km/h (0 Bft) N 0 0 min 0,000 mm 0 W/m 13,9 C 17,4 C 0,0 km/h (0 Bft) 100 %
16.07.2014 23:30 17,2 C 17,2 C 17,4 C 80 % 1020,3 hPa 0,0 l/m 0,0 km/h (0 Bft) N 0 0 min 0,000 mm 0 W/m 13,7 C 17,2 C 0,0 km/h (0 Bft) 100 %
16.07.2014 23:40 16,9 C 16,9 C 17,2 C 82 % 1020,4 hPa 0,0 l/m 0,0 km/h (0 Bft) NW 315 0 min 0,000 mm 0 W/m 13,8 C 16,9 C 1,6 km/h (1 Bft) 100 %
16.07.2014 23:50 16,7 C 16,7 C 16,9 C 83 % 1020,5 hPa 0,0 l/m 0,0 km/h (0 Bft) NW 315 0 min 0,000 mm 0 W/m 13,8 C 16,7 C 1,6 km/h (1 Bft) 100 %
_ Min-Zeit 06:00 06:00 06:10 19:00 19:20 - 00:00 - - - - - 06:00 06:00 00:00 00:10
Minimum _ 12,9 C 12,9 C 12,9 C 48 % 1019,1 hPa - 0,0 km/h (0 Bft) - - - - - 10,8 C 12,9 C 0,0 km/h (0 Bft) 79 %
_ Max-Zeit 16:30 16:20 16:30 08:20 07:20 00:00 15:20 - - 08:20 16:00 13:40 15:30 16:20 14:20 00:00
Maximum _ 26,9 C 26,6 C 26,9 C 89 % 1020,8 hPa 0,0 l/m 6,4 km/h
NW (2 Bft)
- - 10 min 0,483 mm 1181 W/m 17,4 C 26,8 C 16,1 km/h
NW (3 Bft)
100 %
Durchschnitt _ 20,0 C 19,8 C 20,1 C 72 % 1020,2 hPa #0,0 l/m 0,5 km/h (0 Bft) NW - #10:10 h #3,505 mm 399 W/m 14,3 C 20,0 C 3,2 km/h (1 Bft) 99 %
PRIVATE WETTERSTATION BILLIGHEIM-ALLFELD - www.neckar-odenwald-wetter.de - Holger Sonntag